Home   Weather   Taichung   Past weeks
Flag for Taiwan

Past Weather in Taichung, Taiwan — Yesterday and Last 2 Weeks

Now
72 °F

Passing clouds.


Feels Like: 72 °F
Forecast: 87 / 62 °F
Wind: 14 mph from East

Location: Chiang Kai Shek

Current Time: Mar 19, 2019 at 7:01:44 pm

Latest Report: Mar 19, 2019 at 6:00 pm


Visibility: N/A

Pressure: 29.95 "Hg

Humidity: 78%

Dew Point: 64 °F

Location of TaichungLocation

Past Weather in Taichung — Graph

°F

Taichung Temperature Yesterday

Maximum temperature yesterday: 73 °F (at 10:00 am)
Minimum temperature yesterday: 64 °F (at 11:00 pm)
Average temperature yesterday: 68 °F

High & Low Weather Summary for the Past Weeks

 TemperatureHumidityPressure
High82 °F (Mar 13, 12:30 pm)100% (Mar 5, 7:00 pm)30.24 "Hg (Mar 5, 7:00 pm)
Low54 °F (Mar 7, 6:30 pm)46% (Mar 16, 7:30 am)29.80 "Hg (Mar 9, 6:30 pm)
Average65 °F81%30.03 "Hg
* Reported Mar 4 6:00 pm — Mar 19 6:00 pm, Taichung. Weather by CustomWeather, © 2019

Note: Actual official high and low records may vary slightly from our data, if they occured in-between our weather recording intervals... More about our weather records

Advertising

Taichung Weather History for the Previous 24 Hours

Scroll right to see more
 ConditionsComfort  
Time TempWeatherWind HumidityBarometerVisibility
6:00 pm
Tue, Mar 19
72 °FPassing clouds.14 mph78%29.95 "HgN/A
5:30 pm73 °FPassing clouds.15 mph74%29.95 "HgN/A
5:00 pm75 °FPassing clouds.16 mph69%29.95 "HgN/A
4:30 pm75 °FPassing clouds.16 mph69%29.95 "HgN/A
4:00 pm77 °FPassing clouds.15 mph69%29.95 "HgN/A
3:30 pm79 °FPassing clouds.12 mph65%29.95 "HgN/A
3:00 pm79 °FPassing clouds.13 mph65%29.95 "HgN/A
2:30 pm77 °FScattered clouds.18 mph69%29.95 "HgN/A
2:00 pm77 °FScattered clouds.18 mph69%29.95 "HgN/A
1:30 pm77 °FPassing clouds.20 mph69%29.98 "HgN/A
1:00 pm75 °FScattered clouds.20 mph74%29.98 "HgN/A
12:30 pm75 °FScattered clouds.18 mph74%30.01 "HgN/A
12:00 pm73 °FScattered clouds.17 mph78%30.07 "HgN/A
11:30 am73 °FPartly sunny.18 mph78%30.07 "HgN/A
11:00 am73 °FPartly sunny.15 mph78%30.07 "HgN/A
10:30 am72 °FPartly sunny.13 mph78%30.07 "HgN/A
10:00 am72 °FPartly sunny.14 mph78%30.07 "HgN/A
9:30 am72 °FPartly sunny.15 mph78%30.07 "HgN/A
8:30 am70 °FPartly sunny.15 mph78%30.07 "HgN/A
8:00 am70 °FBroken clouds.13 mph83%30.07 "HgN/A
7:30 am68 °FBroken clouds.12 mph88%30.07 "HgN/A
7:00 am66 °FPartly sunny.12 mph94%30.04 "HgN/A
6:30 am66 °FPartly sunny.12 mph94%30.01 "HgN/A
6:00 am66 °FPassing clouds.10 mph88%30.01 "HgN/A
5:30 am66 °FPassing clouds.9 mph94%30.01 "HgN/A
5:00 am66 °FPassing clouds.10 mph94%29.98 "HgN/A
4:30 am66 °FPassing clouds.9 mph94%29.98 "Hg5 mi
4:00 am66 °FPassing clouds.8 mph94%29.98 "Hg4 mi
3:30 am64 °FFog.7 mph100%29.98 "Hg3 mi
3:00 am64 °FFog.5 mph94%29.98 "Hg2 mi
2:30 am64 °FFog.3 mph94%29.98 "Hg3 mi
2:00 am64 °FFog.3 mph94%29.98 "Hg3 mi
1:30 am64 °FFog.3 mph94%29.98 "Hg3 mi
1:00 am64 °FFog.3 mph94%29.98 "Hg3 mi
12:30 am64 °FPassing clouds.3 mph94%30.01 "Hg4 mi
12:00 am66 °FPassing clouds.2 mph94%30.01 "Hg4 mi
11:30 pm
Mon, Mar 18
66 °FPassing clouds.2 mph94%30.01 "Hg4 mi
11:00 pm64 °FPassing clouds.2 mph94%30.01 "Hg5 mi
10:30 pm66 °FPassing clouds.2 mph94%30.01 "Hg5 mi
10:00 pm66 °FPassing clouds.3 mph94%30.01 "Hg5 mi
9:30 pm68 °FPassing clouds.5 mph88%30.01 "Hg5 mi
9:00 pm66 °FPassing clouds.2 mph94%30.01 "Hg5 mi
8:37 pm68 °FPassing clouds.2 mph88%30.01 "Hg5 mi
8:00 pm66 °FPassing clouds.1 mph94%29.98 "Hg5 mi
7:30 pm68 °FPassing clouds.2 mph88%29.98 "Hg6 mi
7:00 pm68 °FPartly cloudy.5 mph88%29.98 "Hg6 mi
Weather by CustomWeather, © 2019

See weather overview